FW3855 Weather Reports


time (UTC)temp
F
wind
direction
speed
knots
gust
knots
rain 1hr
in
rain 24hr
in
rain mn
in
humidity
%
barometer
mb
20260510183026 88 71 3.5 6.1 0.00 0.00 0.00 1 1019.0
20260510182027 88 34 3.5 6.1 0.00 0.00 0.00 1 1019.0
20260510181525 89 85 2.6 6.1 0.00 0.00 0.00 1 1019.0
20260510181025 87 45 2.6 7.0 0.00 0.00 0.00 1 1019.1
20260510180525 87 79 2.6 7.0 0.00 0.00 0.00 1 1019.1
20260510180026 87 319 3.5 7.0 0.00 0.00 0.00 1 1019.1
20260510175523 87 14 4.3 8.7 0.00 0.00 0.00 1 1019.1
20260510175027 88 72 3.5 10.4 0.00 0.00 0.00 1 1019.1
20260510174527 87 4 1.7 10.4 0.00 0.00 0.00 1 1019.0
20260510174022 87 46 0.9 5.2 0.00 0.00 0.00 1 1019.1
20260510173011 87 134 3.5 7.8 0.00 0.00 0.00 1 1019.0
20260510172504 87 93 3.5 7.8 0.00 0.00 0.00 1 1019.0
20260510171451 86 90 2.6 9.6 0.00 0.00 0.00 1 1019.0
20260510170948 85 45 2.6 9.6 0.00 0.00 0.00 1 1019.1
20260510170440 85 110 3.5 9.6 0.00 0.00 0.00 1 1019.0
20260510165934 85 49 2.6 7.8 0.00 0.00 0.00 1 1019.1
20260510165431 84 60 2.6 7.8 0.00 0.00 0.00 1 1019.1
20260510164925 84 206 3.5 7.8 0.00 0.00 0.00 1 1019.0
20260510163407 83 67 3.5 7.0 0.00 0.00 0.00 1 1019.0
20260510162858 83 20 3.5 7.0 0.00 0.00 0.00 1 1019.0
20260510162352 83 23 4.3 7.8 0.00 0.00 0.00 1 1019.0
20260510161845 82 24 3.5 8.7 0.00 0.00 0.00 1 1019.1
20260510154303 79 37 3.5 7.8 0.00 0.00 0.00 1 1019.1
20260510153802 79 77 2.6 7.8 0.00 0.00 0.00 1 1019.0
20260510153252 79 21 2.6 7.0 0.00 0.00 0.00 1 1019.1
20260510152745 78 15 2.6 7.0 0.00 0.00 0.00 1 1019.1
20260510151733 78 57 2.6 6.1 0.00 0.00 0.00 1 1019.1
20260510151226 78 27 2.6 7.0 0.00 0.00 0.00 1 1019.1
20260510150721 77 108 3.5 7.0 0.00 0.00 0.00 1 1019.1
20260510145204 77 93 1.7 5.2 0.00 0.00 0.00 1 1018.9
20260510144701 77 82 1.7 5.2 0.00 0.00 0.00 1 1018.9
20260510144151 76 106 1.7 5.2 0.00 0.00 0.00 2 1018.9
20260510143649 76 86 1.7 6.1 0.00 0.00 0.00 2 1018.8
20260510143139 75 10 1.7 6.1 0.00 0.00 0.00 2 1018.8
20260510142638 75 96 1.7 5.2 0.00 0.00 0.00 3 1018.8
20260510142127 75 25 1.7 4.3 0.00 0.00 0.00 3 1018.8
20260510141621 75 279 1.7 4.3 0.00 0.00 0.00 4 1018.6
20260510141114 75 79 0.9 3.5 0.00 0.00 0.00 4 1018.5
20260510135557 73 104 1.7 4.3 0.00 0.00 0.00 6 1018.5
20260510135053 73 89 1.7 4.3 0.00 0.00 0.00 6 1018.4
20260510134547 72 102 1.7 5.2 0.00 0.00 0.00 6 1018.4
20260510134044 72 75 0.9 5.2 0.00 0.00 0.00 7 1018.4
20260510133043 71 88 0.9 3.5 0.00 0.00 0.00 7 1018.2
20260510132547 71 122 1.7 4.3 0.00 0.00 0.00 7 1018.2
20260510132045 70 177 1.7 4.3 0.00 0.00 0.00 8 1018.1
20260510131546 69 198 0.9 3.5 0.00 0.00 0.00 9 1018.0
20260510131046 68 214 1.7 3.5 0.00 0.00 0.00 9 1017.8
20260510130544 67 186 1.7 3.5 0.00 0.00 0.00 9 1017.7
20260510130047 65 175 0.9 1.7 0.00 0.00 0.00 11 1017.7
20260510125546 65 194 0.9 1.7 0.00 0.00 0.00 11 1017.7
20260510125045 64 169 0.9 1.7 0.00 0.00 0.00 11 1017.6
20260510124542 64 197 0.9 1.7 0.00 0.00 0.00 11 1017.6
20260510123543 67 106 1.7 3.5 0.00 0.00 0.00 10 1017.4
20260510123039 67 107 2.6 4.3 0.00 0.00 0.00 10 1017.3
20260510122541 67 172 3.5 4.3 0.00 0.00 0.00 10 1017.2
20260510122040 67 168 3.5 5.2 0.00 0.00 0.00 10 1017.0
20260510121540 66 181 2.6 5.2 0.00 0.00 0.00 11 1017.0
20260510121041 65 180 1.7 4.3 0.00 0.00 0.00 11 1017.0
20260510120039 65 181 1.7 4.3 0.00 0.00 0.00 10 1017.0
20260510115540 65 196 2.6 5.2 0.00 0.00 0.00 10 1017.0
20260510115041 65 176 1.7 5.2 0.00 0.00 0.00 10 1017.0
20260510114536 65 198 1.7 2.6 0.00 0.00 0.00 10 1017.3
20260510114037 66 218 2.6 6.1 0.00 0.00 0.00 10 1017.3
20260510113536 66 207 1.7 6.1 0.00 0.00 0.00 10 1017.3
20260510113036 65 194 0.9 5.2 0.00 0.00 0.00 10 1017.3
20260510112036 67 173 0.9 2.6 0.00 0.00 0.00 10 1017.0
20260510111536 68 250 0.0 2.6 0.00 0.00 0.00 9 1016.9
20260510111035 68 142 0.0 2.6 0.00 0.00 0.00 9 1016.8
20260510110538 69 173 0.9 3.5 0.00 0.00 0.00 9 1016.7
20260510110036 69 160 2.6 6.1 0.00 0.00 0.00 9 1016.7
20260510105538 69 176 3.5 6.1 0.00 0.00 0.00 9 1016.6
20260510105037 70 186 2.6 6.1 0.00 0.00 0.00 9 1016.6
20260510104535 70 205 0.9 5.2 0.00 0.00 0.00 9 1016.5
20260510104036 69 161 0.0 3.5 0.00 0.00 0.00 9 1016.6
20260510103540 69 193 0.9 2.6 0.00 0.00 0.00 9 1016.5
20260510102034 72 122 0.9 3.5 0.00 0.00 0.00 7 1016.4
20260510101528 73 162 2.6 6.1 0.00 0.00 0.00 7 1016.4
20260510101023 73 179 2.6 6.1 0.00 0.00 0.00 8 1016.4
20260510100010 72 156 2.6 4.3 0.00 0.00 0.00 8 1016.5
20260510095507 71 181 1.7 2.6 0.00 0.00 0.00 8 1016.4
20260510094959 71 198 1.7 3.5 0.00 0.00 0.00 8 1016.5
20260510093443 72 172 1.7 4.3 0.00 0.00 0.00 8 1016.5
20260510091925 70 189 1.7 2.6 0.00 0.00 0.00 9 1016.4
20260510091416 70 152 0.0 2.6 0.00 0.00 0.00 8 1016.4
20260510090911 70 133 0.0 2.6 0.00 0.00 0.00 8 1016.4
20260510090406 71 117 0.0 1.7 0.00 0.00 0.00 7 1016.2
20260510085900 72 180 0.0 1.7 0.00 0.00 0.00 7 1016.2
20260510085353 73 157 0.9 4.3 0.00 0.00 0.00 7 1016.1
20260510084847 73 157 1.7 4.3 0.00 0.00 0.00 6 1016.1
20260510083834 73 190 2.6 7.0 0.00 0.00 0.00 6 1016.1
20260510083328 73 151 1.7 7.0 0.00 0.00 0.00 6 1016.0
20260510082822 73 184 1.7 3.5 0.00 0.00 0.00 6 1016.1
20260510081811 75 179 1.7 4.3 0.00 0.00 0.00 4 1016.0
20260510081305 76 153 0.9 4.3 0.00 0.00 0.00 3 1016.1
20260510080758 76 238 0.9 4.3 0.00 0.00 0.00 3 1016.0
20260510080252 76 219 1.7 5.2 0.00 0.00 0.00 3 1016.1
20260510075241 77 214 1.7 8.7 0.00 0.00 0.00 3 1016.0
20260510074733 77 212 0.9 5.2 0.00 0.00 0.00 3 1016.0
20260510074226 77 201 1.7 10.4 0.00 0.00 0.00 3 1016.0
20260510073721 78 252 2.6 10.4 0.00 0.00 0.00 3 1016.1
20260510073217 77 269 3.5 10.4 0.00 0.00 0.00 3 1016.0
20260510072711 77 239 3.5 10.4 0.00 0.00 0.00 4 1016.0
20260510072207 77 191 2.6 8.7 0.00 0.00 0.00 4 1015.9
20260510071656 78 146 3.5 12.2 0.00 0.00 0.00 4 1016.0
20260510071151 78 150 3.5 12.2 0.00 0.00 0.00 4 1015.9
20260510070644 78 92 4.3 12.2 0.00 0.00 0.00 4 1016.0
20260510070139 78 203 4.3 12.2 0.00 0.00 0.00 5 1015.9
20260510065632 78 224 3.5 7.8 0.00 0.00 0.00 5 1015.9
20260510065127 78 233 4.3 10.4 0.00 0.00 0.00 5 1015.9
20260510064116 78 199 4.3 11.3 0.00 0.00 0.00 5 1015.8
20260510063103 78 201 4.3 8.7 0.00 0.00 0.00 5 1015.9
20260510062557 78 209 3.5 8.7 0.00 0.00 0.00 5 1015.9
20260510062051 78 201 3.5 9.6 0.00 0.00 0.00 5 1015.9
20260510061545 78 159 3.5 9.6 0.00 0.00 0.00 5 1015.9
20260510061038 78 170 3.5 8.7 0.00 0.00 0.00 5 1015.8
20260510060533 78 204 2.6 7.8 0.00 0.00 0.00 5 1015.8
20260510060028 78 230 3.5 7.8 0.00 0.00 0.00 5 1015.8
20260510055017 77 208 2.6 8.7 0.00 0.00 0.00 6 1015.9
20260510054508 77 214 3.5 7.8 0.00 0.00 0.00 6 1015.9
20260510054003 77 272 2.6 8.7 0.00 0.00 0.00 6 1015.9
20260510053457 77 252 2.6 8.7 0.00 0.00 0.00 5 1016.0
20260510052950 77 120 2.6 7.8 0.00 0.00 0.00 5 1016.0
20260510052447 77 170 1.7 7.8 0.00 0.00 0.00 5 1016.0
20260510051939 77 262 1.7 6.1 0.00 0.00 0.00 5 1016.0
20260510051435 78 244 1.7 6.1 0.00 0.00 0.00 5 1015.9
20260510050927 78 206 1.7 6.1 0.00 0.00 0.00 4 1015.9
20260510050420 78 249 2.6 6.1 0.00 0.00 0.00 4 1015.9
20260510045914 78 230 2.6 7.0 0.00 0.00 0.00 2 1015.9
20260510045409 78 217 3.5 6.1 0.00 0.00 0.00 2 1015.8
20260510044903 79 179 3.5 7.0 0.00 0.00 0.00 2 1015.8
20260510044357 79 212 4.3 7.0 0.00 0.00 0.00 2 1015.8
20260510043347 79 233 4.3 7.0 0.00 0.00 0.00 1 1015.8
20260510042841 79 250 4.3 7.0 0.00 0.00 0.00 1 1015.8
20260510042333 78 241 3.5 7.0 0.00 0.00 0.00 2 1015.7
20260510041826 78 214 3.5 7.0 0.00 0.00 0.00 2 1015.7
20260510041321 79 224 3.5 7.8 0.00 0.00 0.00 2 1015.6
20260510040310 79 235 2.6 7.0 0.00 0.00 0.00 1 1015.6
20260510035805 79 242 1.7 3.5 0.00 0.00 0.00 1 1015.4
20260510035256 79 244 0.9 3.5 0.00 0.00 0.00 1 1015.3
20260510034247 78 284 0.9 3.5 0.00 0.00 0.00 2 1015.3
20260510033738 79 198 1.7 5.2 0.00 0.00 0.00 2 1015.2
20260510032733 78 252 1.7 5.2 0.00 0.00 0.00 2 1015.1
20260510032233 78 231 1.7 5.2 0.00 0.00 0.00 2 1015.0
20260510031737 79 181 1.7 4.3 0.00 0.00 0.00 2 1015.0
20260510031231 78 220 1.7 3.5 0.00 0.00 0.00 2 1015.0
20260510030731 78 190 1.7 3.5 0.00 0.00 0.00 3 1014.9
20260510030232 78 224 0.9 2.6 0.00 0.00 0.00 3 1014.9
20260510025729 79 238 0.9 3.5 0.00 0.00 0.00 3 1014.8
20260510025229 80 219 0.9 3.5 0.00 0.00 0.00 3 1014.6
20260510024730 80 248 0.9 4.3 0.00 0.00 0.00 3 1014.5
20260510024229 81 297 1.7 4.3 0.00 0.00 0.00 3 1014.5
20260510023230 82 297 1.7 7.8 0.00 0.00 0.00 2 1014.5
20260510022731 82 251 1.7 7.8 0.00 0.00 0.00 2 1014.4
20260510022230 82 285 0.9 4.3 0.00 0.00 0.00 3 1014.3
20260510021726 82 239 0.9 3.5 0.00 0.00 0.00 2 1014.3
20260510021227 82 278 0.9 3.5 0.00 0.00 0.00 2 1014.3
20260510020725 83 204 0.9 3.5 0.00 0.00 0.00 2 1014.3
20260510020227 83 228 1.7 4.3 0.00 0.00 0.00 2 1014.3
20260510015223 85 231 1.7 5.2 0.00 0.00 0.00 1 1014.2
20260510014724 86 292 1.7 5.2 0.00 0.00 0.00 1 1014.2
20260510014223 87 245 1.7 5.2 0.00 0.00 0.00 1 1014.2
20260510012221 88 279 2.6 8.7 0.00 0.00 0.00 1 1014.0
20260510011719 87 278 3.5 10.4 0.00 0.00 0.00 1 1014.1
20260510011223 88 340 2.6 10.4 0.00 0.00 0.00 1 1014.1
20260510010719 88 255 2.6 9.6 0.00 0.00 0.00 1 1014.0
20260510010221 89 286 2.6 9.6 0.00 0.00 0.00 1 1014.1
20260510005719 89 275 1.7 5.2 0.00 0.00 0.00 1 1014.1
20260510005223 89 293 1.7 7.0 0.00 0.00 0.00 1 1014.1
20260510004719 89 321 2.6 7.8 0.00 0.00 0.00 1 1014.1
20260510004219 89 219 2.6 7.8 0.00 0.00 0.00 1 1014.1
20260510003719 89 179 3.5 7.0 0.00 0.00 0.00 1 1014.0
20260510003219 89 188 3.5 8.7 0.00 0.00 0.00 1 1014.0
20260510002719 89 294 3.5 8.7 0.00 0.00 0.00 1 1014.0
20260510001721 90 136 2.6 11.3 0.00 0.00 0.00 1 1014.0
20260510000719 90 211 4.3 11.3 0.00 0.00 0.00 1 1014.0
20260510000221 89 238 4.3 11.3 0.00 0.00 0.00 1 1013.8
20260509235719 89 260 5.2 11.3 0.00 0.00 0.00 1 1014.0
20260509235219 89 200 4.3 13.0 0.00 0.00 0.00 1 1014.1
20260509234718 89 254 2.6 13.0 0.00 0.00 0.00 1 1014.1
20260509234214 90 290 3.5 9.6 0.00 0.00 0.00 1 1014.2
20260509233714 90 293 3.5 9.6 0.00 0.00 0.00 1 1014.3
20260509233214 90 273 2.6 8.7 0.00 0.00 0.00 1 1014.2
20260509232714 90 204 3.5 13.0 0.00 0.00 0.00 1 1014.1
20260509232212 90 282 4.3 13.0 0.00 0.00 0.00 1 1014.2
20260509231713 90 231 4.3 12.2 0.00 0.00 0.00 1 1014.2
20260509231210 91 195 3.5 12.2 0.00 0.00 0.00 1 1014.2
20260509230710 90 262 4.3 15.6 0.00 0.00 0.00 1 1014.2
20260509230203 89 150 5.2 15.6 0.00 0.00 0.00 1 1014.2
20260509225657 90 213 4.3 10.4 0.00 0.00 0.00 1 1014.2
20260509225151 90 203 5.2 14.8 0.00 0.00 0.00 1 1014.1
20260509224646 90 141 6.1 16.5 0.00 0.00 0.00 1 1014.3
20260509224141 89 143 5.2 16.5 0.00 0.00 0.00 1 1014.2
20260509223634 89 265 4.3 11.3 0.00 0.00 0.00 1 1014.2
20260509223127 89 288 3.5 13.0 0.00 0.00 0.00 1 1014.3
20260509222622 90 274 4.3 13.0 0.00 0.00 0.00 1 1014.4
20260509222116 89 293 4.3 11.3 0.00 0.00 0.00 1 1014.5
20260509220616 89 305 5.2 20.0 0.00 0.00 0.00 1 1014.6
20260509220112 90 196 6.1 20.0 0.00 0.00 0.00 1 1014.8
20260509215114 90 301 3.5 11.3 0.00 0.00 0.00 1 1014.9
20260509214614 90 290 1.7 7.0 0.00 0.00 0.00 1 1014.9
20260509213610 89 229 4.3 9.6 0.00 0.00 0.00 1 1015.2
20260509213114 89 252 5.2 12.2 0.00 0.00 0.00 1 1015.1
20260509212611 89 267 4.3 12.2 0.00 0.00 0.00 1 1015.2
20260509212111 91 246 3.5 13.0 0.00 0.00 0.00 1 1015.2
20260509211611 89 324 4.3 13.0 0.00 0.00 0.00 1 1015.1
20260509211110 90 306 4.3 12.2 0.00 0.00 0.00 1 1015.2
20260509210114 89 225 5.2 12.2 0.00 0.00 0.00 1 1015.3
20260509205608 89 281 6.1 13.0 0.00 0.00 0.00 1 1015.4
20260509205100 89 300 5.2 13.0 0.00 0.00 0.00 1 1015.3
20260509204556 89 281 4.3 11.3 0.00 0.00 0.00 1 1015.4
20260509204047 89 299 5.2 13.0 0.00 0.00 0.00 1 1015.6
20260509203542 89 346 5.2 13.0 0.00 0.00 0.00 1 1015.7
20260509202530 89 196 4.3 13.0 0.00 0.00 0.00 1 1015.6
20260509202024 89 305 4.3 13.0 0.00 0.00 0.00 1 1015.7
20260509201519 89 221 4.3 12.2 0.00 0.00 0.00 1 1015.7
20260509201012 89 264 6.1 18.2 0.00 0.00 0.00 1 1015.8
20260509200507 89 194 6.1 18.2 0.00 0.00 0.00 1 1015.7
20260509195959 89 125 4.3 14.8 0.00 0.00 0.00 1 1015.8
20260509195454 89 322 4.3 11.3 0.00 0.00 0.00 1 1015.7
20260509194441 89 264 3.5 15.6 0.00 0.00 0.00 1 1015.8
20260509193935 88 210 3.5 15.6 0.00 0.00 0.00 1 1015.8
20260509192923 89 316 4.3 13.9 0.00 0.00 0.00 1 1016.1
20260509191911 89 250 2.6 7.8 0.00 0.00 0.00 1 1016.0
20260509191406 88 246 2.6 7.8 0.00 0.00 0.00 1 1016.0
20260509190900 89 228 3.5 8.7 0.00 0.00 0.00 1 1016.0
20260509190354 88 298 5.2 10.4 0.00 0.00 0.00 1 1016.2
20260509185847 89 299 4.3 10.4 0.00 0.00 0.00 1 1016.1
20260509184835 88 173 3.5 11.3 0.00 0.00 0.00 2 1016.4
20260509184329 88 29 3.5 7.8 0.00 0.00 0.00 2 1016.1
20260509183824 87 200 3.5 10.4 0.00 0.00 0.00 1 1016.2
20260509183320 87 240 3.5 10.4 0.00 0.00 0.00 1 1016.4